AKST,Max TemperatureF,Mean TemperatureF,Min TemperatureF,Max Dew PointF,MeanDew PointF,Min DewpointF,Max Humidity, Mean Humidity, Min Humidity, Max Sea Level PressureIn, Mean Sea Level PressureIn, Min Sea Level PressureIn, Max VisibilityMiles, Mean VisibilityMiles, Min VisibilityMiles, Max Wind SpeedMPH, Mean Wind SpeedMPH, Max Gust SpeedMPH,PrecipitationIn, CloudCover, Events, WindDirDegrees
2013-11-1,45,42,39,39,38,37,93,82,76,30.09,29.99,29.86,10,10,10,12,9,22,0.00,8,,97
2013-11-2,44,38,32,37,35,30,96,90,73,30.11,30.09,30.08,10,10,9,9,2,,0.00,6,,289
2013-11-3,37,32,28,34,31,26,100,94,76,30.13,30.09,29.96,10,7,0,7,1,,0.00,4,Fog,288
2013-11-4,37,32,28,35,30,27,100,95,79,29.93,29.75,29.63,10,4,1,13,6,,0.10,8,Rain-Snow,297
2013-11-5,37,35,33,35,34,32,97,95,89,29.83,29.70,29.62,10,9,6,12,7,,0.22,8,Rain,291
2013-11-6,39,38,36,35,32,27,97,81,65,30.04,29.97,29.83,10,10,10,15,11,20,0.02,8,Rain,307
2013-11-7,37,35,33,29,24,18,82,66,54,29.98,29.87,29.80,10,10,9,14,10,22,0.00,6,,310
2013-11-8,32,28,24,16,13,10,60,54,47,30.24,30.09,29.91,10,9,4,17,9,24,0.00,1,,314
2013-11-9,28,23,18,15,12,9,85,62,49,30.35,30.30,30.24,10,7,2,17,13,24,0.00,3,,304
2013-11-10,28,22,17,25,20,14,93,85,74,30.34,30.28,30.19,10,6,2,16,10,,0.03,7,Snow,293
2013-11-11,34,30,26,28,25,23,93,86,75,30.19,30.02,29.86,10,9,4,17,12,24,0.02,5,Snow,295
2013-11-12,37,34,32,29,26,24,82,73,60,30.07,29.94,29.85,10,10,8,16,13,23,0.00,8,Snow,309
2013-11-13,33,30,28,23,21,19,78,68,59,30.24,30.18,30.09,10,10,10,13,10,20,0.00,5,,301
2013-11-14,39,32,26,35,27,21,93,86,75,30.23,29.83,29.62,10,7,1,16,10,28,0.10,8,Rain-Snow,294
2013-11-15,35,26,17,31,17,6,88,60,34,29.94,29.85,29.65,10,10,10,16,8,23,0.00,1,,309
2013-11-16,27,22,18,12,5,-2,78,44,32,29.96,29.88,29.83,10,10,10,16,7,25,0.00,4,,297
2013-11-17,21,18,14,0,-4,-7,43,37,31,30.17,30.06,29.97,10,10,10,20,8,28,0.00,2,,295
2013-11-18,12,10,8,-6,-8,-9,51,43,39,30.20,30.18,30.16,10,10,10,14,9,18,0.00,0,,309
2013-11-19,7,5,3,-6,-9,-10,64,50,46,30.17,30.14,30.07,10,10,10,15,10,,0.00,2,,313
2013-11-20,10,6,3,4,-3,-7,76,59,50,30.33,30.20,30.06,10,10,2,15,11,23,0.00,5,Snow,303
2013-11-21,15,12,10,11,7,5,88,80,64,30.30,30.26,30.20,10,3,1,14,11,22,0.07,8,Snow,303
2013-11-22,42,28,14,38,22,10,93,87,79,30.24,30.07,29.79,10,4,0,23,11,38,1.05,8,Fog-Rain-Snow,342
2013-11-23,39,34,27,36,33,26,96,90,73,30.29,29.88,29.66,10,9,5,22,14,38,0.60,6,Rain,76
2013-11-24,27,22,18,25,19,14,92,84,75,30.32,30.27,30.20,10,10,8,17,14,22,0.00,2,,295
2013-11-25,26,22,17,23,20,14,93,88,74,30.19,29.99,29.91,10,3,0,18,12,23,0.32,8,Fog-Snow,292
2013-11-26,33,28,24,29,26,23,93,89,82,30.04,30.02,29.96,10,8,2,15,12,,0.02,8,Snow,293
2013-11-27,37,34,30,36,32,28,100,95,87,29.96,29.67,29.42,10,6,1,16,6,18,0.98,8,Rain,299
2013-11-28,39,36,34,37,35,32,96,87,76,29.79,29.68,29.44,10,9,4,22,12,45,0.16,8,Rain,106
2013-11-29,39,28,17,36,22,8,93,77,57,30.04,29.76,29.60,10,7,2,24,18,45,0.12,8,Rain-Snow,306
2013-11-30,18,15,12,11,7,1,85,69,52,30.22,30.15,30.04,10,6,2,20,14,30,0.00,8,Snow,301